KB1RMA-13 Weather Reports


time (UTC)temp
C
wind
direction
speed
KPH
gust
KPH
rain 1hr
cm
rain 24hr
cm
rain mn
cm
humidity
%
barometer
mb
20260507115320 10 325 6.4 20.9 0.00 0.00 0.00 78 1007.9
20260507114816 10 285 16.1 24.1 0.00 0.00 0.00 79 1007.7
20260507114314 10 303 8.0 20.9 0.00 0.00 0.00 81 1007.8
20260507113811 10 316 8.0 22.5 0.00 0.00 0.00 81 1007.8
20260507113308 9 322 6.4 16.1 0.00 0.00 0.00 82 1007.6
20260507112806 9 308 6.4 17.7 0.00 0.00 0.00 82 1007.5
20260507112306 9 333 8.0 20.9 0.00 0.00 0.00 82 1007.3
20260507111800 9 304 8.0 24.1 0.00 0.00 0.00 82 1007.4
20260507111256 9 322 8.0 20.9 0.00 0.00 0.00 83 1007.8
20260507110752 9 331 4.8 17.7 0.00 0.00 0.00 83 1007.7
20260507110249 9 349 4.8 12.9 0.00 0.00 0.00 83 1008.0
20260507105746 9 316 3.2 16.1 0.00 0.00 0.00 84 1007.7
20260507105242 9 282 8.0 12.9 0.00 0.00 0.00 85 1007.5
20260507104739 9 326 8.0 19.3 0.00 0.00 0.00 85 1007.3
20260507104236 8 329 3.2 9.7 0.00 0.00 0.00 85 1007.1
20260507103732 9 331 4.8 9.7 0.00 0.00 0.00 85 1007.4
20260507103228 9 316 12.9 22.5 0.00 0.00 0.00 85 1006.9
20260507102725 8 301 14.5 16.1 0.00 0.00 0.00 86 1007.1
20260507102221 9 309 4.8 16.1 0.00 0.00 0.00 86 1007.2
20260507101717 9 323 8.0 17.7 0.00 0.00 0.00 86 1007.5
20260507101213 9 341 11.3 22.5 0.00 0.00 0.00 86 1007.1
20260507100710 8 344 6.4 17.7 0.00 0.00 0.00 86 1006.9
20260507100209 8 340 8.0 8.0 0.00 0.00 0.00 87 1007.2
20260507095707 9 298 6.4 22.5 0.00 0.00 0.00 86 1007.4
20260507095203 9 317 6.4 24.1 0.00 0.00 0.00 86 1007.2
20260507094659 9 305 12.9 17.7 0.00 0.00 0.00 86 1007.0
20260507094156 9 314 12.9 20.9 0.00 0.00 0.00 87 1006.9
20260507093653 9 306 4.8 24.1 0.00 0.00 0.00 87 1006.9
20260507093152 9 333 0.0 11.3 0.00 0.00 0.00 87 1007.2
20260507092649 9 297 11.3 19.3 0.00 0.00 0.00 86 1007.2
20260507092145 9 284 6.4 20.9 0.00 0.00 0.00 86 1007.3
20260507091642 9 292 4.8 17.7 0.00 0.00 0.00 86 1007.3
20260507091138 9 289 6.4 17.7 0.00 0.00 0.00 86 1007.1
20260507090633 9 281 8.0 20.9 0.00 0.00 0.00 85 1007.0
20260507090131 9 315 9.7 19.3 0.00 0.00 0.00 85 1006.7
20260507085628 9 281 6.4 22.5 0.00 0.00 0.00 85 1006.6
20260507085124 10 283 8.0 19.3 0.00 0.00 0.00 86 1006.4
20260507084621 10 279 6.4 22.5 0.00 0.00 0.00 85 1006.8
20260507084118 10 308 17.7 27.4 0.00 0.00 0.00 85 1006.6
20260507083615 10 324 6.4 17.7 0.00 0.00 0.00 86 1006.4
20260507083112 10 280 8.0 17.7 0.00 0.00 0.00 86 1006.5
20260507082607 10 325 6.4 20.9 0.00 0.00 0.00 86 1006.1
20260507082104 10 294 8.0 19.3 0.00 0.00 0.00 87 1006.3
20260507081600 9 297 14.5 16.1 0.00 0.00 0.00 88 1006.5
20260507081058 10 283 14.5 29.0 0.00 0.00 0.00 88 1006.6
20260507080553 10 272 17.7 30.6 0.00 0.00 0.00 87 1006.8
20260507080050 10 300 9.7 24.1 0.00 0.00 0.00 85 1006.4
20260507075545 10 301 16.1 40.2 0.00 0.00 0.00 84 1006.5
20260507075042 10 295 24.1 25.7 0.00 0.00 0.00 84 1006.3
20260507074539 10 310 14.5 24.1 0.00 0.00 0.00 84 1006.2
20260507074037 10 312 9.7 20.9 0.00 0.00 0.00 84 1006.4
20260507073533 10 294 14.5 27.4 0.00 0.00 0.00 84 1006.2
20260507073030 10 296 9.7 20.9 0.00 0.00 0.00 85 1006.1
20260507072527 10 304 11.3 30.6 0.00 0.00 0.00 85 1006.1
20260507072024 10 308 4.8 25.7 0.00 0.00 0.00 86 1006.2
20260507071522 10 333 17.7 20.9 0.00 0.00 0.00 87 1005.9
20260507071018 11 311 4.8 27.4 0.00 0.00 0.00 88 1005.9
20260507070515 11 293 9.7 19.3 0.00 0.00 0.00 89 1006.0
20260507070013 11 289 9.7 17.7 0.00 0.00 0.00 90 1005.9
20260507065508 11 295 6.4 14.5 0.00 0.00 0.00 91 1005.8
20260507065006 11 291 3.2 11.3 0.00 0.00 0.00 91 1005.8
20260507064504 11 304 8.0 16.1 0.00 0.00 0.00 91 1006.0
20260507064002 11 281 8.0 14.5 0.00 0.00 0.00 91 1005.6
20260507063458 11 288 9.7 14.5 0.00 0.00 0.00 91 1005.6
20260507062955 11 277 4.8 12.9 0.00 0.00 0.00 90 1005.5
20260507062452 11 294 3.2 12.9 0.00 0.00 0.00 90 1005.4
20260507061950 11 289 6.4 22.5 0.00 0.00 0.00 90 1005.8
20260507061448 11 284 6.4 17.7 0.00 0.00 0.00 90 1006.0
20260507060946 11 307 6.4 17.7 0.00 0.00 0.00 89 1005.7
20260507060442 11 281 4.8 19.3 0.00 0.00 0.00 89 1005.8
20260507055939 11 292 8.0 22.5 0.00 0.00 0.00 90 1005.8
20260507055434 11 288 12.9 14.5 0.00 0.00 0.00 90 1006.0
20260507054931 11 289 11.3 25.7 0.00 0.00 0.00 90 1006.2
20260507054427 11 314 4.8 16.1 0.00 0.00 0.00 90 1005.7
20260507053925 11 298 9.7 20.9 0.00 0.00 0.00 90 1005.6
20260507053422 11 296 8.0 19.3 0.00 0.00 0.00 90 1005.8
20260507052921 11 294 11.3 22.5 0.00 0.00 0.00 90 1005.7
20260507052418 11 315 9.7 19.3 0.00 0.00 0.00 90 1005.6
20260507051914 11 317 6.4 25.7 0.00 0.00 0.00 90 1005.9
20260507051412 12 293 6.4 14.5 0.00 0.00 0.00 91 1006.3
20260507050909 12 294 4.8 25.7 0.00 0.00 0.00 91 1006.0
20260507050405 12 298 8.0 16.1 0.00 0.00 0.00 91 1006.1
20260507045902 12 282 11.3 14.5 0.00 0.00 0.00 92 1005.9
20260507045359 12 285 9.7 25.7 0.00 0.00 0.00 92 1005.8
20260507044856 12 285 14.5 22.5 0.00 0.00 0.00 92 1005.8
20260507044353 12 264 8.0 27.4 0.00 0.00 0.00 92 1005.6
20260507043849 12 293 24.1 24.1 0.00 0.00 0.00 93 1005.6
20260507043346 12 318 11.3 25.7 0.00 0.00 0.00 94 1005.4
20260507042842 13 334 9.7 17.7 0.00 0.00 0.00 94 1005.6
20260507042338 13 311 14.5 27.4 0.00 0.00 0.00 94 1006.0
20260507041835 13 299 11.3 24.1 0.00 0.00 0.00 95 1005.9
20260507041331 14 318 6.4 11.3 0.00 0.00 0.00 96 1005.6
20260507040828 15 312 8.0 11.3 0.00 0.00 0.00 97 1005.7
20260507040324 15 271 6.4 19.3 0.00 0.00 0.00 97 1005.4
20260507035820 15 292 3.2 11.3 0.00 0.00 0.00 97 1005.3
20260507035316 15 268 8.0 17.7 0.00 0.00 0.00 97 1005.4
20260507034814 15 264 14.5 17.7 0.00 0.00 0.00 98 1005.3
20260507034310 15 274 6.4 17.7 0.00 0.00 0.00 98 1005.3
20260507033809 15 265 11.3 22.5 0.00 0.00 0.00 98 1005.0
20260507033306 15 255 11.3 12.9 0.00 0.00 0.00 97 1004.9
20260507032803 15 243 8.0 17.7 0.00 0.00 0.00 97 1004.7
20260507032259 15 250 6.4 17.7 0.00 0.00 0.00 97 1004.8
20260507031756 15 251 8.0 17.7 0.00 0.00 0.00 97 1004.6
20260507031253 15 239 4.8 19.3 0.00 0.00 0.00 97 1004.5
20260507030749 15 247 14.5 17.7 0.00 0.00 0.00 97 1004.5
20260507030247 15 211 9.7 17.7 0.00 0.00 0.00 97 1004.5
20260507025744 15 196 8.0 20.9 0.00 0.00 0.00 97 1004.6
20260507025241 15 246 9.7 17.7 0.00 0.00 0.00 97 1004.6
20260507024739 15 212 14.5 27.4 0.00 0.00 0.00 97 1004.8
20260507024236 15 252 6.4 11.3 0.00 0.00 0.00 97 1004.8
20260507023731 15 199 4.8 14.5 0.00 0.00 0.00 97 1004.9
20260507023229 15 210 8.0 11.3 0.00 0.00 0.00 97 1004.5
20260507022726 15 233 8.0 19.3 0.00 0.00 0.00 97 1004.8
20260507022222 15 222 12.9 14.5 0.00 0.00 0.00 97 1004.5
20260507021718 15 191 8.0 9.7 0.00 0.00 0.00 97 1004.6
20260507021214 15 207 4.8 9.7 0.00 0.00 0.00 97 1004.6
20260507020712 15 232 11.3 16.1 0.00 0.00 0.00 97 1004.6
20260507020208 15 230 4.8 17.7 0.00 0.00 0.00 97 1005.0
20260507015706 15 226 8.0 17.7 0.00 0.00 0.00 97 1005.0
20260507015203 15 204 8.0 19.3 0.00 0.00 0.00 97 1004.9
20260507014700 15 217 8.0 17.7 0.00 0.00 0.00 97 1005.0
20260507014156 15 224 11.3 24.1 0.00 0.00 0.00 97 1005.0
20260507013653 15 212 14.5 17.7 0.00 0.00 0.00 97 1005.0
20260507013150 15 243 14.5 16.1 0.00 0.00 0.00 97 1005.1
20260507012648 15 208 6.4 20.9 0.00 0.00 0.00 97 1004.9
20260507012143 14 215 9.7 20.9 0.00 0.00 0.00 97 1005.0
20260507011641 14 207 8.0 17.7 0.00 0.00 0.00 98 1005.1
20260507011137 14 196 8.0 16.1 0.00 0.00 0.00 98 1005.1
20260507010632 14 198 4.8 22.5 0.00 0.00 0.00 98 1004.7
20260507010128 14 218 11.3 30.6 0.00 0.00 0.00 98 1005.0
20260507005626 14 208 11.3 30.6 0.00 0.00 0.00 98 1005.0
20260507005121 14 224 11.3 19.3 0.00 0.00 0.00 98 1005.0
20260507004619 14 210 9.7 17.7 0.00 0.00 0.00 98 1005.0
20260507004116 14 196 9.7 16.1 0.00 0.00 0.00 98 1005.0
20260507003612 14 180 8.0 16.1 0.00 0.00 0.00 98 1005.0
20260507003107 14 205 20.9 22.5 0.00 0.00 0.00 98 1005.1
20260507002604 14 187 9.7 19.3 0.00 0.00 0.00 98 1005.1
20260507002059 14 193 9.7 22.5 0.00 0.00 0.00 98 1004.8
20260507001557 14 190 12.9 16.1 0.00 0.00 0.00 98 1004.7
20260507001054 14 212 16.1 17.7 0.00 0.00 0.00 98 1004.7
20260507000550 14 178 8.0 16.1 0.00 0.00 0.00 98 1004.8
20260507000046 14 193 14.5 19.3 0.00 0.00 0.00 98 1004.7
20260506235543 14 191 17.7 17.7 0.00 0.00 0.00 97 1004.8
20260506235038 14 195 22.5 22.5 0.00 0.00 0.00 97 1004.5
20260506234536 15 180 14.5 16.1 0.00 0.00 0.00 97 1004.7
20260506234033 15 198 8.0 24.1 0.00 0.00 0.00 97 1004.9
20260506233530 15 176 9.7 19.3 0.00 0.00 0.00 97 1004.7
20260506233027 15 196 6.4 20.9 0.00 0.00 0.00 96 1004.8
20260506232523 15 197 17.7 22.5 0.00 0.00 0.00 96 1004.7
20260506232018 15 159 8.0 17.7 0.00 0.00 0.00 96 1005.0
20260506231516 15 200 12.9 16.1 0.00 0.00 0.00 96 1004.8
20260506231014 15 204 11.3 24.1 0.00 0.00 0.00 96 1004.8
20260506230510 15 218 12.9 19.3 0.00 0.00 0.00 96 1004.9
20260506230008 15 203 14.5 16.1 0.00 0.00 0.00 96 1005.0
20260506225504 15 182 8.0 16.1 0.00 0.00 0.00 96 1005.0
20260506225001 15 200 12.9 14.5 0.00 0.00 0.00 96 1004.8
20260506224458 15 201 9.7 14.5 0.00 0.00 0.00 95 1004.8
20260506223954 15 177 11.3 22.5 0.00 0.00 0.00 95 1004.9
20260506223450 15 193 16.1 22.5 0.00 0.00 0.00 94 1005.2
20260506222948 15 184 8.0 20.9 0.00 0.00 0.00 94 1005.3
20260506222444 15 221 17.7 17.7 0.00 0.00 0.00 94 1004.9
20260506221941 15 199 9.7 22.5 0.00 0.00 0.00 94 1005.2
20260506221438 15 206 14.5 17.7 0.00 0.00 0.00 95 1005.2
20260506220936 15 177 9.7 20.9 0.00 0.00 0.00 95 1005.1
20260506220431 15 209 22.5 24.1 0.00 0.00 0.00 95 1005.1
20260506215928 15 172 12.9 19.3 0.00 0.00 0.00 95 1005.7
20260506215424 15 169 12.9 20.9 0.00 0.00 0.00 95 1005.4
20260506214920 15 209 8.0 22.5 0.00 0.00 0.00 95 1005.6
20260506214417 15 193 8.0 17.7 0.00 0.00 0.00 95 1005.5
20260506213914 15 208 9.7 17.7 0.00 0.00 0.00 95 1005.7
20260506213412 15 186 11.3 17.7 0.00 0.00 0.00 95 1005.6
20260506212909 15 192 8.0 19.3 0.00 0.00 0.00 95 1005.6
20260506212405 15 211 9.7 17.7 0.00 0.00 0.00 95 1005.7
20260506211900 15 203 11.3 20.9 0.00 0.00 0.00 95 1005.8
20260506211356 15 203 12.9 22.5 0.00 0.00 0.00 95 1005.9
20260506210854 15 175 11.3 20.9 0.00 0.00 0.00 95 1005.9
20260506210350 15 180 16.1 19.3 0.00 0.00 0.00 95 1005.8
20260506205848 15 204 6.4 16.1 0.00 0.00 0.00 95 1006.0
20260506205343 15 200 8.0 19.3 0.00 0.00 0.00 94 1005.8
20260506204840 15 181 9.7 16.1 0.00 0.00 0.00 94 1006.1
20260506204338 15 166 8.0 14.5 0.00 0.00 0.00 93 1006.1
20260506203835 16 195 11.3 16.1 0.00 0.00 0.00 92 1006.0
20260506203332 16 192 9.7 16.1 0.00 0.00 0.00 91 1005.9
20260506202829 16 201 9.7 20.9 0.00 0.00 0.00 90 1006.0
20260506202326 16 194 12.9 19.3 0.00 0.00 0.00 89 1005.8
20260506201822 16 194 11.3 20.9 0.00 0.00 0.00 89 1005.8
20260506201320 16 180 12.9 22.5 0.00 0.00 0.00 88 1005.7
20260506200817 16 197 16.1 25.7 0.00 0.00 0.00 87 1005.6
20260506200313 16 185 12.9 27.4 0.00 0.00 0.00 87 1005.5
20260506195809 17 170 17.7 22.5 0.00 0.00 0.00 87 1005.9
20260506195306 17 176 12.9 22.5 0.00 0.00 0.00 86 1005.9
20260506194803 17 189 9.7 16.1 0.00 0.00 0.00 85 1005.8
20260506194259 17 177 8.0 19.3 0.00 0.00 0.00 84 1005.9
20260506193757 17 184 17.7 20.9 0.00 0.00 0.00 83 1006.3
20260506193254 17 207 14.5 24.1 0.00 0.00 0.00 82 1005.8
20260506192750 17 177 6.4 22.5 0.00 0.00 0.00 82 1006.0
20260506192247 17 196 9.7 17.7 0.00 0.00 0.00 82 1006.0
20260506191744 17 179 9.7 16.1 0.00 0.00 0.00 83 1005.9
20260506191240 17 187 9.7 16.1 0.00 0.00 0.00 83 1006.0
20260506190738 17 185 16.1 17.7 0.00 0.00 0.00 82 1005.9
20260506190234 17 176 16.1 19.3 0.00 0.00 0.00 80 1005.9
20260506185731 18 180 24.1 24.1 0.00 0.00 0.00 78 1005.9
20260506185227 19 201 17.7 30.6 0.00 0.00 0.00 74 1005.8
20260506184725 19 199 11.3 22.5 0.00 0.00 0.00 73 1006.0
20260506184222 19 181 16.1 27.4 0.00 0.00 0.00 71 1005.8
20260506183719 20 195 14.5 29.0 0.00 0.00 0.00 70 1005.8
20260506183215 19 169 16.1 22.5 0.00 0.00 0.00 71 1005.9
20260506182712 20 176 19.3 32.2 0.00 0.00 0.00 70 1006.1
20260506182209 20 166 16.1 27.4 0.00 0.00 0.00 70 1006.1
20260506181707 20 174 22.5 33.8 0.00 0.00 0.00 69 1006.1
20260506181204 20 171 16.1 38.6 0.00 0.00 0.00 67 1006.1
20260506180701 20 174 16.1 27.4 0.00 0.00 0.00 69 1006.4
20260506180157 20 168 25.7 32.2 0.00 0.00 0.00 69 1006.3
20260506175654 20 182 17.7 32.2 0.00 0.00 0.00 68 1006.6
20260506175151 20 175 17.7 35.4 0.00 0.00 0.00 69 1006.4
20260506174649 20 183 29.0 45.1 0.00 0.00 0.00 68 1006.4
20260506174145 20 182 20.9 45.1 0.00 0.00 0.00 67 1006.4
20260506173643 21 190 19.3 45.1 0.00 0.00 0.00 66 1006.3
20260506173140 21 198 30.6 38.6 0.00 0.00 0.00 66 1006.6
20260506172637 20 191 14.5 41.8 0.00 0.00 0.00 68 1006.6
20260506172133 20 194 35.4 43.5 0.00 0.00 0.00 68 1006.9
20260506171631 20 176 25.7 35.4 0.00 0.00 0.00 68 1006.8
20260506171129 20 175 25.7 29.0 0.00 0.00 0.00 68 1006.7
20260506170626 20 181 17.7 41.8 0.00 0.00 0.00 68 1006.8
20260506170123 20 198 25.7 40.2 0.00 0.00 0.00 68 1006.9
20260506165621 20 191 17.7 27.4 0.00 0.00 0.00 68 1007.0
20260506165117 20 204 33.8 40.2 0.00 0.00 0.00 67 1006.9
20260506164614 20 180 24.1 41.8 0.00 0.00 0.00 67 1006.8
20260506164112 20 197 20.9 40.2 0.00 0.00 0.00 67 1007.2
20260506163607 20 171 27.4 35.4 0.00 0.00 0.00 68 1007.0
20260506163103 20 176 12.9 38.6 0.00 0.00 0.00 67 1007.2
20260506162600 20 181 17.7 41.8 0.00 0.00 0.00 68 1007.3
20260506162057 20 165 27.4 35.4 0.00 0.00 0.00 68 1007.5
20260506161555 20 161 22.5 38.6 0.00 0.00 0.00 68 1007.5
20260506161051 21 168 16.1 29.0 0.00 0.00 0.00 67 1007.6
20260506160549 21 177 16.1 30.6 0.00 0.00 0.00 67 1007.5
20260506160045 21 172 17.7 24.1 0.00 0.00 0.00 66 1007.8
20260506155544 21 171 17.7 29.0 0.00 0.00 0.00 66 1008.0
20260506153715 21 188 20.9 29.0 0.00 0.00 0.00 66 1008.4
20260506153213 21 180 17.7 35.4 0.00 0.00 0.00 65 1008.2
20260506152709 21 210 11.3 25.7 0.00 0.00 0.00 66 1008.6
20260506152207 21 180 8.0 37.0 0.00 0.00 0.00 66 1008.4
20260506151706 21 211 8.0 22.5 0.00 0.00 0.00 67 1008.4
20260506151202 21 210 12.9 30.6 0.00 0.00 0.00 67 1008.6
20260506150658 21 231 14.5 24.1 0.00 0.00 0.00 67 1008.6
20260506150155 21 230 24.1 37.0 0.00 0.00 0.00 66 1008.6
20260506145652 21 200 20.9 29.0 0.00 0.00 0.00 67 1008.7
20260506145149 21 173 24.1 30.6 0.00 0.00 0.00 67 1008.3
20260506144647 21 212 8.0 33.8 0.00 0.00 0.00 66 1008.5
20260506144143 21 189 16.1 30.6 0.00 0.00 0.00 65 1008.5
20260506143641 21 228 24.1 32.2 0.00 0.00 0.00 66 1008.3
20260506143139 21 236 29.0 33.8 0.00 0.00 0.00 68 1008.6
20260506142637 20 181 19.3 37.0 0.00 0.00 0.00 68 1008.3
20260506142135 20 193 17.7 35.4 0.00 0.00 0.00 70 1008.3
20260506141632 20 212 25.7 32.2 0.00 0.00 0.00 69 1008.5
20260506141130 20 208 27.4 40.2 0.00 0.00 0.00 71 1008.4
20260506140628 20 217 24.1 41.8 0.00 0.00 0.00 70 1008.6
20260506140125 20 220 25.7 40.2 0.00 0.00 0.00 70 1008.6
20260506135621 20 204 17.7 22.5 0.00 0.00 0.00 71 1008.6
20260506135118 19 218 17.7 35.4 0.00 0.00 0.00 72 1008.6
20260506134614 19 246 11.3 35.4 0.00 0.00 0.00 73 1008.7
20260506134110 19 216 20.9 35.4 0.00 0.00 0.00 73 1008.9
20260506133608 18 241 11.3 22.5 0.00 0.00 0.00 74 1009.0
20260506133104 18 212 11.3 38.6 0.00 0.00 0.00 73 1009.1
20260506132602 18 215 14.5 25.7 0.00 0.00 0.00 73 1008.9
20260506132059 18 177 12.9 19.3 0.00 0.00 0.00 74 1008.8
20260506131556 18 234 20.9 33.8 0.00 0.00 0.00 74 1008.7
20260506131052 18 211 14.5 30.6 0.00 0.00 0.00 75 1008.8
20260506130549 18 183 14.5 22.5 0.00 0.00 0.00 75 1009.0
20260506130047 18 235 19.3 38.6 0.00 0.00 0.00 74 1009.1
20260506125545 18 207 17.7 32.2 0.00 0.00 0.00 74 1008.8
20260506125042 18 217 9.7 19.3 0.00 0.00 0.00 75 1008.9
20260506124540 18 233 19.3 37.0 0.00 0.00 0.00 76 1009.0
20260506124038 17 231 14.5 24.1 0.00 0.00 0.00 77 1009.2
20260506123535 17 247 11.3 32.2 0.00 0.00 0.00 77 1009.2
20260506123033 17 199 20.9 29.0 0.00 0.00 0.00 77 1009.2
20260506122529 17 241 14.5 30.6 0.00 0.00 0.00 77 1009.2
20260506122028 17 208 14.5 29.0 0.00 0.00 0.00 77 1009.1
20260506121525 17 233 16.1 35.4 0.00 0.00 0.00 77 1008.9
20260506121021 17 197 20.9 35.4 0.00 0.00 0.00 78 1009.1
20260506120519 17 237 8.0 32.2 0.00 0.00 0.00 78 1009.3
20260506120016 17 208 12.9 27.4 0.00 0.00 0.00 78 1009.0
20260506115514 17 204 8.0 32.2 0.00 0.00 0.00 78 1009.3